FW3691 Weather Reports


Display with metric or nautical units.
time (UTC)temp
F
wind
direction
speed
MPH
gust
MPH
rain 1hr
in
rain 24hr
in
rain mn
in
humidity
%
barometer
mb
20260506001535 51 103 8.0 14.0 0.00 0.00 0.00 76 1009.3
20260506000029 51 46 8.0 17.0 0.00 0.00 0.00 75 1009.6
20260505234527 51 44 8.0 18.0 0.00 0.00 0.00 75 1009.7
20260505233024 51 66 7.0 15.0 0.00 0.00 0.00 75 1009.5
20260505231536 51 47 9.0 16.0 0.00 0.00 0.00 74 1009.5
20260505230025 52 38 9.0 16.0 0.00 0.00 0.00 74 1009.1
20260505224518 52 20 8.0 21.0 0.00 0.00 0.00 74 1008.5
20260505223018 52 53 7.0 17.0 0.00 0.00 0.00 74 1008.7
20260505221516 52 44 12.0 19.0 0.00 0.00 0.00 74 1007.9
20260505220012 53 15 10.0 18.0 0.00 0.00 0.00 75 1008.0
20260505214511 53 59 8.0 18.0 0.00 0.00 0.00 76 1007.8
20260505213015 53 25 10.0 17.0 0.00 0.00 0.00 75 1008.3
20260505211510 54 28 7.0 19.0 0.00 0.00 0.00 76 1008.1
20260505210004 54 59 9.0 19.0 0.00 0.00 0.00 78 1007.4
20260505204501 54 38 7.0 13.0 0.00 0.00 0.00 80 1007.7
20260505203121 54 19 11.0 22.0 0.00 0.00 0.00 80 1007.9
20260505201603 55 36 5.0 14.0 0.00 0.00 0.00 81 1007.3
20260505200057 55 32 8.0 16.0 0.00 0.00 0.00 79 1007.4
20260505194554 55 40 8.0 17.0 0.00 0.00 0.00 80 1007.2
20260505193051 55 14 9.0 15.0 0.00 0.00 0.00 81 1007.3
20260505191600 55 52 9.0 17.0 0.00 0.00 0.00 82 1006.8
20260505190047 55 43 7.0 18.0 0.00 0.00 0.00 83 1006.8
20260505184546 55 34 7.0 16.0 0.00 0.00 0.00 83 1006.7
20260505183044 56 52 9.0 18.0 0.00 0.00 0.00 83 1006.6
20260505181546 56 45 7.0 15.0 0.00 0.00 0.00 84 1006.9
20260505180040 56 73 9.0 19.0 0.00 0.00 0.00 84 1006.4
20260505174542 56 355 10.0 15.0 0.00 0.00 0.00 84 1005.8
20260505173033 56 65 7.0 14.0 0.00 0.00 0.00 85 1005.8
20260505171532 56 355 6.0 15.0 0.00 0.00 0.00 85 1005.9
20260505170026 57 44 7.0 17.0 0.00 0.00 0.00 85 1005.4
20260505164523 58 53 9.0 17.0 0.00 0.00 0.00 84 1005.1
20260505163021 59 32 7.0 15.0 0.00 0.00 0.00 84 1005.0
20260505161515 60 38 6.0 17.0 0.00 0.00 0.00 85 1004.7
20260505153005 68 5 4.0 10.0 0.00 0.00 0.00 78 1004.1
20260505151502 71 57 1.0 4.0 0.00 0.00 0.00 79 1003.7
20260505124547 66 72 0.0 5.0 0.00 0.00 0.00 82 1003.7
20260505123045 66 46 2.0 9.0 0.00 0.00 0.00 82 1003.5
20260505121555 65 154 3.0 9.0 0.00 0.00 0.00 82 1003.4
20260505120044 65 70 2.0 6.0 0.00 0.00 0.00 83 1003.2
20260505114541 65 55 3.0 11.0 0.00 0.00 0.00 82 1003.1
20260505113042 65 58 3.0 11.0 0.00 0.00 0.00 82 1003.0
20260505111543 65 77 5.0 12.0 0.00 0.00 0.00 83 1002.7
20260505101541 65 83 3.0 10.0 0.00 0.00 0.00 83 1002.0
20260505100036 65 64 2.0 9.0 0.00 0.00 0.00 83 1001.8
20260505094537 65 83 1.0 7.0 0.00 0.00 0.00 83 1001.8
20260505093040 65 64 3.0 9.0 0.00 0.00 0.00 82 1001.9
20260505091532 65 72 0.0 7.0 0.00 0.00 0.00 82 1001.9
20260505090033 66 80 2.0 7.0 0.00 0.00 0.00 81 1002.1
20260505084528 66 65 1.0 8.0 0.00 0.00 0.00 79 1002.1
20260505083028 67 63 2.0 6.0 0.00 0.00 0.00 78 1002.2
20260505081531 67 58 1.0 5.0 0.00 0.00 0.00 78 1002.3
20260505080027 67 101 2.0 5.0 0.00 0.00 0.00 78 1002.3
20260505074526 67 65 2.0 6.0 0.00 0.00 0.00 79 1002.6
20260505073035 67 53 2.0 5.0 0.00 0.00 0.00 78 1002.9
20260505071525 67 58 3.0 5.0 0.00 0.00 0.00 78 1002.9
20260505070024 66 43 2.0 5.0 0.00 0.00 0.00 79 1002.9
20260505064525 66 36 1.0 4.0 0.00 0.00 0.00 79 1003.3
20260505063025 66 29 2.0 3.0 0.00 0.00 0.00 79 1003.3
20260505061519 67 144 0.0 5.0 0.00 0.00 0.00 76 1002.5
20260505060026 68 86 2.0 7.0 0.00 0.00 0.00 74 1002.1
20260505054530 68 149 2.0 5.0 0.00 0.00 0.00 73 1002.3
20260505053012 68 169 2.0 8.0 0.00 0.00 0.00 73 1002.7
20260505051510 68 165 2.0 8.0 0.00 0.00 0.00 72 1002.6
20260505041504 68 159 4.0 12.0 0.00 0.00 0.00 70 1002.5
20260505040004 69 192 4.0 11.0 0.00 0.00 0.00 69 1002.7
20260505034501 69 102 4.0 10.0 0.00 0.00 0.00 68 1002.9
20260505033115 70 98 4.0 10.0 0.00 0.00 0.00 66 1003.3
20260505031557 70 163 2.0 8.0 0.00 0.00 0.00 66 1003.5
20260505030057 70 153 3.0 8.0 0.00 0.00 0.00 66 1003.9
20260505024604 70 151 3.0 7.0 0.00 0.00 0.00 65 1003.9
20260505023105 71 178 1.0 7.0 0.00 0.00 0.00 63 1003.8
20260505021556 71 175 3.0 7.0 0.00 0.00 0.00 63 1003.7
20260505020056 71 150 2.0 7.0 0.00 0.00 0.00 63 1003.7
20260505014554 72 208 1.0 5.0 0.00 0.00 0.00 62 1003.7
20260505013052 72 161 3.0 9.0 0.00 0.00 0.00 61 1003.8
20260505011559 73 122 1.0 5.0 0.00 0.00 0.00 61 1003.6
20260505010054 74 160 1.0 6.0 0.00 0.00 0.00 60 1003.6
20260505004554 74 179 4.0 12.0 0.00 0.00 0.00 59 1003.5
20260505003050 75 202 3.0 11.0 0.00 0.00 0.00 58 1003.6